Location: Rumah Apan
(2.7833°N, 113.9500°E)
Time: 05:49:35
(UTC+00:00)

Daily predictions for brighter satellites

Satellite Brightness Start Highest point End
(mag) Time Altitude Azimuth Time Altitude Azimuth Time Altitude Azimuth
PAYLOAD B 4.3 10:23:01 10° SSE 10:28:22 54° ENE 10:33:42 10° N
ARIANE 5 R/B 3.3 10:24:32 10° W 10:30:58 58° SSW 10:34:15 10° ESE
Cosmos 1048 Rocket 4.0 10:25:54 10° NNW 10:31:09 88° E 10:36:19 10° SSE
ARIANE 5 R/B 2.2 10:30:50 10° WSW 10:32:41 33° S 10:36:21 10° ESE
DELTA 2 R/B (1) 3.6 10:30:24 10° SW 10:36:02 80° SE 10:41:37 10° NE
Timation 2 Rocket 4.0 10:29:40 10° NNW 10:36:17 80° ENE 10:42:36 10° SSE
ARIANE 5 R/B 4.0 10:35:11 10° WSW 10:39:11 51° SSE 11:01:56 11° E
ARIANE 5 R/B 4.0 10:35:11 10° WSW 10:39:11 51° SSE 11:01:54 11° E
ARIANE 5 R/B 4.0 10:35:11 10° WSW 10:39:11 51° SSE 11:01:55 11° E
ARIANE 5 R/B 4.0 10:35:10 10° WSW 10:39:11 51° SSE 11:01:52 11° E
ARIANE 5 R/B 4.0 10:35:11 10° WSW 10:39:12 51° SSE 11:01:54 11° E
deb Chang Zheng 4 3.6 10:35:43 10° SSE 10:39:48 52° ENE 10:43:51 10° N
Centaur D-1AR AC-39 2.0 10:37:33 10° WNW 10:40:48 72° SSW 10:47:35 10° ESE
CZ-4C R/B 4.5 10:37:56 10° N 10:40:54 36° WNW 10:43:49 10° SSW
Lacrosse 5 3.4 10:39:25 10° SSE 10:42:45 17° ESE 10:45:30 12° E
SWIFT 4.5 10:43:50 10° N 10:45:31 12° NNE 10:47:13 10° NE
Cosmos 494 Rocket 4.1 10:40:27 10° NNW 10:45:35 83° WSW 10:50:42 10° S
Delta 168 4.2 10:43:18 10° SSW 10:46:02 22° SSE 10:48:48 12° E
Cosmos 1605 Rocket 3.9 10:41:22 10° S 10:47:31 76° E 10:53:43 10° N
MOS 1-B 4.3 10:43:22 10° SSE 10:49:11 85° ENE 10:54:59 10° NNW
CZ-4B R/B 2.6 10:47:20 11° NE 10:49:50 22° E 10:52:29 10° SSE
SPELTRA 3.7 10:48:32 10° WNW 10:52:15 56° N 11:00:17 15° E
GPS 2-14 Rocket1 2.7 10:50:12 10° WNW 10:54:09 74° SSW 10:57:30 13° ESE
Cosmos 2263 Rocket 3.1 10:50:41 10° NNE 10:55:06 24° ENE 10:59:33 10° SE
ARIANE 5 DEB (SYLDA) 4.3 10:51:23 10° WNW 10:55:28 65° N 11:05:57 17° E
Cosmos 1703 3.4 10:52:25 10° N 10:56:16 74° W 11:00:07 10° S
Okean 1-7 Rocket 4.0 10:53:22 10° NNE 10:57:34 41° E 11:01:48 10° SSE
CZ-4C R/B 2.3 10:57:49 10° S 11:01:38 31° ESE 11:03:29 22° ENE
NOSS 2-2 (D) 4.0 10:59:12 10° SSW 11:04:00 59° WNW 11:07:42 10° NNE
Cosmos 1607 4.0 10:58:48 10° N 11:04:42 51° ENE 11:10:33 10° SE
Centaur AC-119 3.8 11:02:52 10° NW 11:06:42 51° NE 11:20:26 10° ESE
Cosmos 405 Rocket 3.0 11:03:39 10° N 11:07:40 74° W 11:11:42 10° S
Cosmos 292 Rocket 4.4 11:03:49 10° SSE 11:08:08 33° ESE 11:10:12 23° ENE
Intelsat 5-3 Rocket 2.2 11:06:07 10° NW 11:07:56 28° NNE 11:07:56 28° NNE
Cosmos 482 Debris 4.1 11:05:59 10° NNW 11:09:45 39° NE 11:10:04 38° ENE
ARIANE 5 R/B 0.1 11:07:38 10° W 11:10:03 56° S 11:10:17 51° SE
Delta 128 3.6 11:06:57 10° WNW 11:11:26 84° SSW 11:14:50 20° ESE
Ariane H10 4.2 01:26:48 10° W 11:13:22 49° S 11:16:59 19° ESE
COSMOS 2428 3.0 11:08:02 10° S 11:13:26 45° ESE 11:16:57 20° NE
ARIANE 42L R/B 3.9 11:11:31 10° WSW 11:14:32 38° SSE 11:18:52 19° ESE
SL-24 R/B - RUBIN 2 4.4 11:10:49 10° SSW 11:17:26 79° ESE 11:23:14 13° NNE
Genesis I 4.3 11:14:26 10° NW 11:18:16 46° WSW 11:22:03 10° S
Cosmos 2228 2.9 11:16:22 10° S 11:20:41 83° E 11:25:02 10° N
TOS 3.7 11:20:55 10° WSW 11:24:07 31° S 11:24:11 31° SSE
ARIANE 5 R/B 3.1 11:21:46 10° WSW 11:24:26 23° SSW 11:24:37 23° S
deb Ariane 4.0 11:20:05 10° W 11:27:51 49° N 11:28:40 41° NNE
H-2A R/B 2.5 11:26:12 10° SSE 11:30:41 73° ENE 11:35:02 10° N
CZ-4 R/B 3.1 11:27:20 10° SSE 11:36:54 - N 11:28:33 19° SSE
Feng Yun 1-1 Rocket 4.0 11:27:06 10° SSE 11:32:29 74° ENE 11:37:57 10° N
YAOGAN 1 2.4 11:30:15 10° SSE 11:34:32 65° ENE 11:38:47 10° N
Cosmos 1626 Rocket 3.4 11:32:00 10° N 11:36:18 90° W 11:40:39 10° S
Spot 2 3.8 11:33:07 10° SSE 11:37:10 87° W 11:41:12 10° NNW
Cosmos 2056 Rocket 3.3 11:33:53 10° S 11:39:06 82° ESE 11:41:04 39° NNE
Ariane 44LP R/B 2.9 11:37:43 10° WSW 11:39:29 39° SSW 11:39:29 39° SSW
Maqsat-H 2.4 11:42:01 10° WNW 11:45:42 60° N 11:46:49 50° NE
Iridium 51 4.4 11:41:45 10° S 11:45:56 78° WSW 11:45:56 78° WSW
NOSS 0 Rocket 4.2 11:41:20 10° S 11:46:40 45° ESE 11:46:40 45° ESE
Cosmos 1606 Rocket 4.1 11:43:42 10° SSW 11:48:04 57° W 11:50:47 22° NNW
H-2A R/B 4.4 11:45:07 10° SSW 11:49:11 23° WSW 11:53:20 10° NW
Hubble Space Telescope 2.0 11:46:58 10° W 11:50:27 33° NW 11:50:27 33° NW
Okean O Rocket 4.0 11:49:00 10° SSW 11:52:24 23° WSW 11:55:48 10° NW
Cosmos 2219 Rocket 3.1 11:47:07 10° SSW 11:52:25 46° WNW 11:57:01 14° N
Cosmos 2333 Rocket 3.7 11:47:54 10° SW 11:52:56 34° WNW 11:58:00 10° N
Cosmos 1455 4.1 11:51:45 10° SSW 11:55:08 29° W 11:57:22 17° NW
